EST,Max TemperatureF,Mean TemperatureF,Min TemperatureF,Max Dew PointF,MeanDew PointF,Min DewpointF,Max Humidity, Mean Humidity, Min Humidity, Max Sea Level PressureIn, Mean Sea Level PressureIn, Min Sea Level PressureIn, Max VisibilityMiles, Mean VisibilityMiles, Min VisibilityMiles, Max Wind SpeedMPH, Mean Wind SpeedMPH, Max Gust SpeedMPH,PrecipitationIn, CloudCover, Events, WindDirDegrees
2011-2-1,45,38,31,39,31,23,92,78,64,30.33,30.16,29.95,10,8,3,14,4,17,0.10,8,Rain,120
2011-2-2,58,44,29,46,35,11,100,66,31,30.26,29.89,29.78,10,6,0,31,14,44,0.17,5,Fog-Rain,170
2011-2-3,38,32,25,15,12,10,55,45,35,30.51,30.41,30.27,10,10,10,23,7,31,0.00,0,,314
2011-2-4,39,35,31,23,19,17,59,52,44,30.40,30.25,30.08,10,10,10,8,3,9,0.00,7,,108
2011-2-5,51,42,33,39,31,21,100,70,39,30.06,29.80,29.57,10,5,2,25,7,36,0.04,6,Rain,138
2011-2-6,51,40,29,27,24,22,75,56,36,30.05,29.98,29.86,10,10,10,25,7,35,0.00,1,,284
2011-2-7,48,39,30,32,28,25,76,61,46,30.04,29.89,29.70,10,10,10,12,4,14,T,2,,82
2011-2-8,43,33,23,32,15,7,76,53,30,30.30,30.04,29.69,10,10,10,28,16,44,0.00,5,,303
2011-2-9,37,29,21,25,11,6,57,45,32,30.35,30.23,30.03,10,9,1,14,4,17,0.04,5,Snow,25
2011-2-10,41,32,22,26,7,-5,69,42,15,30.22,30.12,30.03,10,10,10,18,8,26,T,2,,310
2011-2-11,48,32,16,11,6,0,67,41,15,30.23,30.15,30.08,10,10,10,16,5,22,0.00,0,,279
2011-2-12,48,38,27,20,12,0,44,36,27,30.23,30.13,30.07,10,10,10,29,9,37,0.00,1,,266
2011-2-13,61,46,30,24,20,17,52,36,20,30.24,30.12,29.99,10,10,10,25,10,33,0.00,0,,246
2011-2-14,67,55,42,27,22,12,45,29,12,30.12,29.93,29.75,10,10,10,36,19,51,0.00,1,,279
2011-2-15,54,43,32,23,18,14,56,43,29,30.45,30.34,30.13,10,10,10,23,6,31,0.00,0,,339
2011-2-16,63,48,33,26,22,16,56,40,23,30.40,30.32,30.22,10,10,10,15,3,18,0.00,0,,144
2011-2-17,71,55,39,45,37,28,93,61,28,30.27,30.16,30.01,10,10,10,18,6,23,0.00,2,,235
2011-2-18,72,64,56,48,40,0,62,40,18,30.07,30.02,29.99,10,10,10,25,13,36,0.00,4,,273
2011-2-19,61,52,43,4,-2,-6,15,12,8,30.26,30.16,30.09,10,10,10,31,17,43,0.00,0,,310
2011-2-20,58,45,31,12,3,-4,43,26,9,30.32,30.18,29.93,10,10,10,17,5,22,0.00,3,,194
2011-2-21,69,56,43,48,36,13,61,42,23,29.90,29.72,29.62,10,10,10,23,10,32,T,3,,238
2011-2-22,44,39,33,37,33,30,96,83,70,30.26,30.02,29.74,10,7,2,18,6,22,0.04,8,Rain,136
2011-2-23,45,38,30,31,29,27,89,74,58,30.37,30.31,30.23,10,10,7,9,5,12,T,6,Rain,102
2011-2-24,44,37,29,43,35,26,100,91,82,30.30,30.12,29.88,9,4,0,8,1,13,0.88,7,Rain,123
2011-2-25,48,32,16,50,38,23,67,41,15,30.15,29.79,29.53,10,9,2,16,5,22,0.00,5,Rain,280
2011-2-26,54,42,30,30,27,23,78,58,38,30.26,30.11,29.95,10,10,10,18,5,23,0.00,0,,178
2011-2-27,70,54,37,54,41,30,79,58,37,30.02,29.96,29.93,10,10,10,14,3,17,T,5,Rain,187
2011-2-28,70,58,46,57,52,37,100,81,61,29.98,29.81,29.73,10,9,2,31,6,39,0.80,5,Rain,279